Location: Casteau
(50.5142°N, 4.0161°E)
Time: 05:55:53
(UTC+00:00)

NOSS 3-1 (C) - Pass Details

Date: 18 September 2020
Orbit: 743 x 1466 km, 63.4° (Epoch: 09 October)

Event Time Altitude Azimuth Distance (km) Brightness Sun altitude
Rises 23:19:57 0° 314° (NW) 3,796 7.2 -38.0°
Reaches altitude 10° 23:22:28 10° 318° (NW) 2,940 6.5 -38.0°
Enters shadow 23:28:49 58° 15° (NNE) 1,405 4.4 -38.1°
